Home   Weather   Washington   Past weeks
Flag for Bolivia

Past Weather in Washington, Bolivia — Yesterday and Last 2 Weeks

Now
72 °F

Clear.


Feels Like: 72 °F
Forecast: 98 / 67 °F
Wind: No wind

Location: Rio Branco Airport

Current Time: Aug 7, 2020 at 11:17:55 pm

Latest Report: Aug 7, 2020 at 10:00 pm


Visibility: 10 mi

Pressure: 29.98 "Hg

Humidity: 78%

Dew Point: 64 °F

Location of WashingtonLocation

Past Weather in Washington — Graph

°F

Washington Temperature Yesterday

Maximum temperature yesterday: 93 °F (at 1:00 pm)
Minimum temperature yesterday: 66 °F (at 4:00 am)
Average temperature yesterday: 79 °F

High & Low Weather Summary for the Past Weeks

 TemperatureHumidityPressure
High93 °F (Aug 4, 4:00 pm)100% (Jul 24, 3:00 am)30.12 "Hg (Jul 24, 3:00 am)
Low59 °F (Jul 26, 7:00 am)32% (Aug 1, 4:00 pm)29.80 "Hg (Jul 24, 5:00 pm)
Average76 °F75%29.98 "Hg
* Reported Jul 23 10:00 pm — Aug 7 10:00 pm, Washington. Weather by CustomWeather, © 2020

Note: Actual official high and low records may vary slightly from our data, if they occured in-between our weather recording intervals... More about our weather records

Washington Weather History for the Previous 24 Hours

Scroll right to see more
 ConditionsComfort  
Time TempWeatherWind HumidityBarometerVisibility
10:00 pm
Fri, Aug 7
72 °FClear.No wind78%29.98 "Hg10 mi
9:00 pm75 °FClear.No wind69%29.98 "Hg10 mi
8:00 pm77 °FClear.1 mph61%29.95 "Hg10 mi
7:00 pm81 °FClear.2 mph54%29.95 "Hg10 mi
6:00 pm88 °FSunny.3 mph40%29.95 "Hg10 mi
5:00 pm91 °FPassing clouds.3 mph36%29.92 "HgN/A
4:00 pm91 °FScattered clouds.6 mph36%29.95 "HgN/A
3:00 pm91 °FScattered clouds.7 mph41%29.95 "HgN/A
2:00 pm93 °FScattered clouds.8 mph39%29.98 "HgN/A
1:00 pm90 °FScattered clouds.10 mph43%30.01 "HgN/A
12:00 pm90 °FScattered clouds.9 mph46%30.04 "HgN/A
11:00 am88 °FPassing clouds.10 mph52%30.07 "HgN/A
10:00 am84 °FPassing clouds.6 mph58%30.07 "HgN/A
9:00 am79 °FPassing clouds.5 mph70%30.04 "HgN/A
8:00 am75 °FSunny.No wind83%30.01 "Hg10 mi
7:00 am66 °FSunny.No wind100%30.01 "Hg10 mi
6:00 am70 °FClear.3 mph94%29.98 "Hg10 mi
5:00 am68 °FClear.No wind100%29.98 "Hg10 mi
4:00 am70 °FClear.3 mph94%29.95 "Hg10 mi
3:00 am66 °FClear.2 mph100%29.95 "Hg10 mi
2:00 am70 °FClear.No wind94%29.98 "Hg10 mi
1:00 am70 °FClear.1 mph94%29.98 "Hg10 mi
12:00 am72 °FClear.2 mph88%29.98 "Hg10 mi
11:00 pm
Thu, Aug 6
73 °FClear.2 mph78%29.98 "Hg10 mi
Weather by CustomWeather, © 2020

See weather overview